Meteo pe oră la Dabrowice

Astăzi, 14 Aprilie, Miercuri

Timp Temperatura Precipitaţii Vânt Presiune Umiditate
00:00 +2°C° 0 mm 3 m/s 751 mmHg 78%
01:00 +2°C° 0 mm 3 m/s 751 mmHg 76%
02:00 +1°C° 0.2 mm 3 m/s 751 mmHg 82%
03:00 +1°C° 0.2 mm 3 m/s 751 mmHg 88%
04:00 +1°C° 0.2 mm 3 m/s 751 mmHg 95%
05:00 +1°C° 0.2 mm 3 m/s 751 mmHg 91%
06:00 +1°C° 0.2 mm 3 m/s 752 mmHg 87%
07:00 +2°C° 0.2 mm 3 m/s 752 mmHg 83%
08:00 +1°C° 0.1 mm 4 m/s 752 mmHg 80%
09:00 +3°C° 0.1 mm 4 m/s 752 mmHg 77%
10:00 +3°C° 0.1 mm 5 m/s 752 mmHg 74%
11:00 +3°C° 0.2 mm 5 m/s 751 mmHg 69%
12:00 +5°C° 0.2 mm 5 m/s 751 mmHg 64%
13:00 +6°C° 0.2 mm 5 m/s 751 mmHg 58%
14:00 +6°C° 0.1 mm 5 m/s 751 mmHg 58%
15:00 +6°C° 0.1 mm 5 m/s 750 mmHg 57%
16:00 +6°C° 0.1 mm 5 m/s 750 mmHg 57%
17:00 +5°C° 0.1 mm 4 m/s 750 mmHg 62%
18:00 +4°C° 0.1 mm 4 m/s 751 mmHg 67%
19:00 +3°C° 0.1 mm 3 m/s 751 mmHg 73%
20:00 +3°C° 0 mm 3 m/s 751 mmHg 76%
21:00 +2°C° 0 mm 3 m/s 751 mmHg 79%
22:00 +2°C° 0 mm 3 m/s 751 mmHg 83%
23:00 +2°C° 0 mm 3 m/s 751 mmHg 83%

Mâine, 15 Aprilie, Joi

Timp Temperatura Precipitaţii Vânt Presiune Umiditate
00:00 +2°C° 0 mm 3 m/s 751 mmHg 83%
01:00 +1°C° 0 mm 3 m/s 751 mmHg 84%
02:00 0°C° 0.1 mm 4 m/s 751 mmHg 88%
03:00 0°C° 0.1 mm 4 m/s 751 mmHg 92%
04:00 -1°C° 0.1 mm 4 m/s 751 mmHg 96%
05:00 -1°C° 0.3 mm 4 m/s 751 mmHg 96%
06:00 -1°C° 0.3 mm 4 m/s 750 mmHg 97%
07:00 -1°C° 0.3 mm 5 m/s 750 mmHg 97%
08:00 -1°C° 0.6 mm 5 m/s 750 mmHg 97%
09:00 -1°C° 0.6 mm 5 m/s 750 mmHg 97%
10:00 -1°C° 0.6 mm 5 m/s 750 mmHg 98%
11:00 -1°C° 0.7 mm 5 m/s 750 mmHg 98%
12:00 -1°C° 0.7 mm 5 m/s 750 mmHg 98%
13:00 -1°C° 0.7 mm 5 m/s 750 mmHg 98%
14:00 -1°C° 0.6 mm 5 m/s 750 mmHg 98%
15:00 -1°C° 0.6 mm 5 m/s 750 mmHg 98%
16:00 -1°C° 0.6 mm 5 m/s 749 mmHg 98%
17:00 -1°C° 0.5 mm 5 m/s 749 mmHg 98%
18:00 -1°C° 0.5 mm 4 m/s 749 mmHg 98%
19:00 -1°C° 0.5 mm 4 m/s 749 mmHg 98%
20:00 -1°C° 0.2 mm 4 m/s 749 mmHg 98%
21:00 0°C° 0.2 mm 3 m/s 749 mmHg 98%
22:00 0°C° 0.2 mm 3 m/s 749 mmHg 98%
23:00 0°C° 0.2 mm 3 m/s 749 mmHg 98%

Poimâine, 16 Aprilie, Vineri

Timp Temperatura Precipitaţii Vânt Presiune Umiditate
00:00 0°C° 0.2 mm 3 m/s 749 mmHg 98%
01:00 0°C° 0.2 mm 3 m/s 749 mmHg 99%
02:00 0°C° 0.2 mm 3 m/s 749 mmHg 99%
03:00 +1°C° 0.2 mm 2 m/s 749 mmHg 99%
04:00 +1°C° 0.2 mm 2 m/s 749 mmHg 99%
05:00 +1°C° 0.2 mm 2 m/s 749 mmHg 99%
06:00 +1°C° 0.2 mm 2 m/s 749 mmHg 99%
07:00 +1°C° 0.2 mm 2 m/s 749 mmHg 99%
08:00 +1°C° 0.2 mm 2 m/s 749 mmHg 99%
09:00 +2°C° 0.2 mm 2 m/s 749 mmHg 99%
10:00 +2°C° 0.2 mm 2 m/s 749 mmHg 99%
11:00 +2°C° 0.1 mm 2 m/s 749 mmHg 99%
12:00 +2°C° 0.1 mm 2 m/s 750 mmHg 99%
13:00 +3°C° 0.1 mm 2 m/s 750 mmHg 99%
14:00 +3°C° 0.1 mm 2 m/s 750 mmHg 99%
15:00 +3°C° 0.1 mm 2 m/s 750 mmHg 99%
16:00 +3°C° 0.1 mm 2 m/s 750 mmHg 99%
17:00 +3°C° 0 mm 2 m/s 750 mmHg 99%
18:00 +3°C° 0 mm 2 m/s 750 mmHg 99%
19:00 +3°C° 0 mm 2 m/s 750 mmHg 99%
20:00 +3°C° 0 mm 2 m/s 750 mmHg 99%
21:00 +3°C° 0 mm 2 m/s 751 mmHg 99%
22:00 +2°C° 0 mm 2 m/s 751 mmHg 99%
23:00 +2°C° 0 mm 2 m/s 750 mmHg 99%

17 Aprilie, Sâmbătă

Timp Temperatura Precipitaţii Vânt Presiune Umiditate
00:00 +2°C° 0 mm 2 m/s 750 mmHg 99%
01:00 +2°C° 0 mm 2 m/s 750 mmHg 99%
02:00 +3°C° 0 mm 2 m/s 750 mmHg 99%
03:00 +3°C° 0 mm 2 m/s 750 mmHg 99%
04:00 +3°C° 0 mm 2 m/s 750 mmHg 99%
05:00 +3°C° 0.1 mm 2 m/s 750 mmHg 99%
06:00 +3°C° 0.1 mm 2 m/s 750 mmHg 99%
07:00 +3°C° 0.1 mm 2 m/s 750 mmHg 98%
08:00 +3°C° 0.1 mm 2 m/s 750 mmHg 98%
09:00 +4°C° 0.1 mm 2 m/s 750 mmHg 98%
10:00 +4°C° 0.1 mm 2 m/s 750 mmHg 98%
11:00 +4°C° 0.1 mm 2 m/s 750 mmHg 97%
12:00 +4°C° 0.1 mm 3 m/s 750 mmHg 97%
13:00 +4°C° 0.1 mm 3 m/s 750 mmHg 97%
14:00 +4°C° 0.1 mm 3 m/s 750 mmHg 97%
15:00 +5°C° 0.1 mm 2 m/s 750 mmHg 98%
16:00 +5°C° 0.1 mm 2 m/s 749 mmHg 98%
17:00 +5°C° 0.1 mm 2 m/s 749 mmHg 98%
18:00 +5°C° 0.1 mm 2 m/s 749 mmHg 99%
19:00 +5°C° 0.1 mm 2 m/s 749 mmHg 99%
20:00 +5°C° 0 mm 2 m/s 749 mmHg 99%
21:00 +5°C° 0 mm 2 m/s 749 mmHg 99%
22:00 +5°C° 0 mm 2 m/s 749 mmHg 99%
23:00 +5°C° 0 mm 2 m/s 749 mmHg 99%

18 Aprilie, Duminică

Timp Temperatura Precipitaţii Vânt Presiune Umiditate
00:00 +5°C° 0 mm 2 m/s 749 mmHg 98%
01:00 +6°C° 0 mm 1 m/s 749 mmHg 98%
02:00 +6°C° 0 mm 1 m/s 749 mmHg 98%
03:00 +6°C° 0 mm 1 m/s 749 mmHg 98%
04:00 +6°C° 0 mm 1 m/s 749 mmHg 98%
05:00 +7°C° 0 mm 1 m/s 749 mmHg 98%
06:00 +7°C° 0 mm 1 m/s 749 mmHg 97%
07:00 +7°C° 0 mm 1 m/s 749 mmHg 96%
08:00 +8°C° 0 mm 1 m/s 749 mmHg 93%
09:00 +9°C° 0 mm 1 m/s 749 mmHg 90%
10:00 +10°C° 0 mm 1 m/s 749 mmHg 87%
11:00 +10°C° 0.3 mm 1 m/s 749 mmHg 82%
12:00 +11°C° 0.3 mm 1 m/s 749 mmHg 78%
13:00 +12°C° 0.3 mm 1 m/s 748 mmHg 73%
14:00 +12°C° 0.3 mm 1 m/s 748 mmHg 72%
15:00 +12°C° 0.3 mm 1 m/s 748 mmHg 71%
16:00 +12°C° 0.3 mm 1 m/s 748 mmHg 69%
17:00 +11°C° 0.2 mm 1 m/s 748 mmHg 73%
18:00 +11°C° 0.2 mm 1 m/s 748 mmHg 77%
19:00 +10°C° 0.2 mm 1 m/s 748 mmHg 81%
20:00 +9°C° 0 mm 1 m/s 748 mmHg 84%
21:00 +7°C° 0 mm 2 m/s 749 mmHg 87%
22:00 +7°C° 0 mm 2 m/s 749 mmHg 89%
23:00 +6°C° 0 mm 2 m/s 749 mmHg 90%

19 Aprilie, Luni

Timp Temperatura Precipitaţii Vânt Presiune Umiditate
00:00 +7°C° 0 mm 1 m/s 749 mmHg 91%
01:00 +7°C° 0 mm 1 m/s 748 mmHg 92%
02:00 +7°C° 0 mm 1 m/s 748 mmHg 92%
03:00 +7°C° 0 mm 1 m/s 748 mmHg 92%
04:00 +6°C° 0 mm 2 m/s 748 mmHg 92%
05:00 +6°C° 0.2 mm 2 m/s 748 mmHg 93%
06:00 +6°C° 0.2 mm 2 m/s 748 mmHg 93%
07:00 +7°C° 0.2 mm 2 m/s 748 mmHg 94%
08:00 +7°C° 0.4 mm 2 m/s 748 mmHg 94%
09:00 +7°C° 0.4 mm 2 m/s 747 mmHg 95%
10:00 +7°C° 0.4 mm 2 m/s 747 mmHg 95%
11:00 +7°C° 0.2 mm 2 m/s 747 mmHg 94%
12:00 +7°C° 0.2 mm 2 m/s 747 mmHg 94%
13:00 +7°C° 0.2 mm 2 m/s 747 mmHg 93%
14:00 +8°C° 0 mm 2 m/s 746 mmHg 92%
15:00 +8°C° 0 mm 2 m/s 746 mmHg 91%
16:00 +9°C° 0 mm 1 m/s 746 mmHg 90%
17:00 +9°C° 0 mm 1 m/s 746 mmHg 91%
18:00 +8°C° 0 mm 1 m/s 746 mmHg 93%
19:00 +7°C° 0 mm 2 m/s 746 mmHg 95%
20:00 +6°C° 0 mm 2 m/s 746 mmHg 95%
21:00 +7°C° 0 mm 1 m/s 746 mmHg 96%
22:00 +6°C° 0 mm 1 m/s 746 mmHg 96%
23:00 +6°C° 0 mm 2 m/s 745 mmHg 96%
Arată mai mult

Formular de consimțământ

Meteoprog și furnizorii noștri de servicii pot stoca și accesa date personale, precum cookies, identificatori de dispozitiv sau alte tehnologii similare pe dispozitivul dumneavoastră și procesa astfel de date pentru a personaliza conținutul și reclamele, dar și pentru a oferi caracteristici de social media și pentru a analiza traficul.

  • Stocarea și/sau accesarea informațiilor pe dispozitivul dumneavoastră

    Cookies, identificatori de dispozitiv sau alte informații pot fi stocate sau accesate pe dispozitiv în scopurile indicate mai sus.

  • Reclame și conținut personalizat, evaluarea reclamelor și a conținutului, informații despre audiențe și dezvoltarea produselor

    Reclamele și conținutul pot fi personalizate pe baza unui profil. Pot fi adăugate date suplimentare pentru a personaliza mai bine reclamele și conținutul. Performanța reclamelor și conținutului poate fi măsurată. Pot fi obținute informații despre utilizatorii care au văzut reclamele și conținutul. Aceste date pot fi utilizate pentru a dezvolta sau îmbunătăți experiența utilizatorilor, sistemele și software-ul.

Dând clic pe ‘Sunt de acord’, permiteți utilizarea cookie-urilor menționate, a identificatorilor de dispozitiv, balizelor web sau altor tehnologii similare. Setările pot fi modificate din browser-ul dispozitivului dumneavoastră.

În anumite scopuri, interesele legitime pot prima asupra consimțământului. Puteți citi mai multe informații în acest sens în Politica privind Confidențialitatea Datelor și Cookie.